"Pseudo-MPEC" for P22pB5T

Created 2026 Sep 5 6:35:12 UT using Find_Orb

Click here for an explanation of pseudo-MPECs

 
 Astrometry: 
     P22pB5T*0C2026 09 03.44311723 22 44.999-02 14 52.40   ~93K5 21.66wXNEOCPF52
     P22pB5T 0C2026 09 03.45480223 22 46.043-02 15 23.74   ~93K5 21.45wXNEOCPF52
     P22pB5T 0C2026 09 03.46657823 22 47.091-02 15 55.63   ~93K5 21.78wXNEOCPF52
     P22pB5T 0C2026 09 03.47827123 22 48.130-02 16 27.33   ~93K5 21.84wXNEOCPF52
     P22pB5T KC2026 09 04.23040823 24 03.89 -02 50 36.6    ~9465 21.5 GVNEOCPH21
     P22pB5T KC2026 09 04.23329623 24 04.17 -02 50 44.4    ~9465 21.5 GVNEOCPH21
     P22pB5T KC2026 09 04.23618423 24 04.43 -02 50 52.1    ~9465 21.4 GVNEOCPH21
     P22pB5T 3C2026 09 04.39474523 24 20.644-02 57 56.82   ~94BZ 21.56GVNEOCPT14
     P22pB5T 3C2026 09 04.39571523 24 20.732-02 57 59.48   ~94BZ 21.50GVNEOCPT14
     P22pB5T 3C2026 09 04.39668523 24 20.817-02 58 02.13   ~94BZ 21.41GVNEOCPT14
     P22pB5T KC2026 09 05.23723923 25 44.43 -03 36 35.4    ~956Z 21.8 GVNEOCPH21
     P22pB5T KC2026 09 05.24012623 25 44.69 -03 36 43.4    ~956Z 21.7 GVNEOCPH21
     P22pB5T KC2026 09 05.24301423 25 44.96 -03 36 51.3    ~956Z 21.6 GVNEOCPH21

Station data:
(F52) Pan-STARRS 2, Haleakala  (N20.707382 W156.255910)  US/Hawaii.
   Observers J. Herman, T. Lowe, P. Minguez, A. Schultz, I. Smith. Measurers
   K. Chambers, T. de Boer, J. Fairlamb, H. Gao, M. Huber, C.-C. Lin, E.
   Magnier, Y. Ramanjooloo, R. Wainscoat, R. Weryk. 1.8-m Ritchey-Chrétien +
   CCD.
(H21) Astronomical Research Observatory, Westfield  (N39.483054 W87.968270)
   US/Illinois.  Observer R. Holmes. Measurers S. Foglia, L. Buzzi, T.
   Linder, R. Holmes. 0.40-m f/5.32 astrograph + CCD.
(T14) Mauna Kea-UH/Tholen NEO Follow-Up (CFHT)  (N19.825252 W155.468876)
   US/Hawaii.  Observer R. Weryk. 3.6-m Canada-France-Hawaii Telescope.

Orbital elements:  P22pB5T
   Perihelion 2026 Sep 15.050458 +/- 0.25 TT =  1:12:39.6 (JD 2461298.550458)
Epoch 2026 Sep  5.0 TT = JDT 2461288.5   Earth MOID: 0.3155   Ma: 0.0635
M 357.419484392 +/- 0.08            (J2000 ecliptic)             AutoNEOCP
n   0.256756008 +/- 0.00594         Peri.  187.611986 +/- 0.19
a   2.451634015 +/- 0.0378          Node   164.411999 +/- 0.016
e   0.46124433 +/- 0.00689          Incl.   15.509325 +/- 0.16
P   3.83869                H 23.09  G  0.15   U  9.3
q 1.320831712 +/- 0.00349    Q 3.582436318 +/- 0.0721
From 13 observations 2026 Sept. 3-5 (43.2 hr); mean residual 0".10
Residuals in arcseconds: 
260903 F52  .06+  .09-    260904 H21  .02-  .16-    260905 H21  .08+  .06+    
260903 F52  .06+  .13+    260904 H21  .08-  .01+    260905 H21  .04+  .01+    
260903 F52  .01+  .05+    260904 T14  .00   .01+    260905 H21  .15+  .07+    
260903 F52  .08-  .06-    260904 T14  .01+  .00     
260904 H21  .27-  .24-    260904 T14  .02-  .00     

Ephemerides (geocentric):
Date (UTC) HH   RA             Dec           delta  r     elong  mag " sig PA
---- --------  ------------   ------------  ------ ------ -----  --- --------
2026 09 05 07  23 25 49.611   -03 38 46.68  .31882 1.3245 171.7 21.7 .250 113
2026 09 05 08  23 25 53.770   -03 40 41.48  .31878 1.3245 171.7 21.7 .257 112
2026 09 05 09  23 25 57.929   -03 42 36.32  .31873 1.3245 171.7 21.7 .264 111
2026 09 05 10  23 26 02.088   -03 44 31.21  .31869 1.3245 171.8 21.7 .271 110
2026 09 05 11  23 26 06.246   -03 46 26.14  .31864 1.3244 171.8 21.7 .278 109
2026 09 05 12  23 26 10.404   -03 48 21.11  .31860 1.3244 171.8 21.7 .286 108
2026 09 05 13  23 26 14.562   -03 50 16.11  .31856 1.3244 171.9 21.7 .294 107
2026 09 05 14  23 26 18.719   -03 52 11.16  .31852 1.3243 171.9 21.7 .302 106
2026 09 05 15  23 26 22.876   -03 54 06.25  .31847 1.3243 172.0 21.7 .310 105
2026 09 05 16  23 26 27.033   -03 56 01.38  .31843 1.3243 172.0 21.7 .318 105
2026 09 05 17  23 26 31.190   -03 57 56.55  .31839 1.3242 172.0 21.7 .327 104
2026 09 05 18  23 26 35.346   -03 59 51.75  .31835 1.3242 172.1 21.7 .336 103
2026 09 05 19  23 26 39.502   -04 01 47.00  .31831 1.3242 172.1 21.7 .344 102
2026 09 05 20  23 26 43.657   -04 03 42.28  .31827 1.3241 172.1 21.7 .354 101
2026 09 05 21  23 26 47.813   -04 05 37.60  .31823 1.3241 172.2 21.7 .363 101
2026 09 05 22  23 26 51.968   -04 07 32.96  .31819 1.3241 172.2 21.7 .372 100
2026 09 05 23  23 26 56.122   -04 09 28.35  .31815 1.3241 172.2 21.7 .382  99
2026 09 06 00  23 27 00.277   -04 11 23.78  .31811 1.3240 172.3 21.7 .392  99
2026 09 06 01  23 27 04.431   -04 13 19.25  .31807 1.3240 172.3 21.7 .402  98
2026 09 06 02  23 27 08.584   -04 15 14.75  .31803 1.3240 172.3 21.7 .412  98
2026 09 06 03  23 27 12.738   -04 17 10.28  .31799 1.3239 172.4 21.7 .422  97
2026 09 06 04  23 27 16.891   -04 19 05.85  .31795 1.3239 172.4 21.7 .433  97
2026 09 06 05  23 27 21.044   -04 21 01.46  .31792 1.3239 172.4 21.7 .444  96
2026 09 06 06  23 27 25.196   -04 22 57.10  .31788 1.3239 172.5 21.7 .454  96
2026 09 06 07  23 27 29.348   -04 24 52.77  .31784 1.3238 172.5 21.7 .465  95
2026 09 06 08  23 27 33.500   -04 26 48.47  .31781 1.3238 172.5 21.7 .477  95
2026 09 06 09  23 27 37.651   -04 28 44.21  .31777 1.3238 172.6 21.7 .488  94
2026 09 06 10  23 27 41.803   -04 30 39.98  .31773 1.3237 172.6 21.7 .500  94
2026 09 06 11  23 27 45.953   -04 32 35.78  .31770 1.3237 172.6 21.7 .511  93
2026 09 06 12  23 27 50.104   -04 34 31.62  .31766 1.3237 172.7 21.7 .523  93
2026 09 06 13  23 27 54.254   -04 36 27.48  .31763 1.3237 172.7 21.7 .535  93
2026 09 06 14  23 27 58.404   -04 38 23.38  .31759 1.3236 172.7 21.7 .547  92
2026 09 06 15  23 28 02.553   -04 40 19.30  .31756 1.3236 172.8 21.7 .560  92
2026 09 06 16  23 28 06.702   -04 42 15.26  .31753 1.3236 172.8 21.7 .572  92
2026 09 06 17  23 28 10.851   -04 44 11.24  .31749 1.3235 172.8 21.6 .585  91
2026 09 06 18  23 28 15.000   -04 46 07.25  .31746 1.3235 172.9 21.6 .598  91
2026 09 06 19  23 28 19.148   -04 48 03.30  .31743 1.3235 172.9 21.6 .611  91
2026 09 06 20  23 28 23.295   -04 49 59.37  .31739 1.3235 172.9 21.6 .624  90
2026 09 06 21  23 28 27.443   -04 51 55.47  .31736 1.3234 172.9 21.6 .637  90
2026 09 06 22  23 28 31.590   -04 53 51.59  .31733 1.3234 173.0 21.6 .651  90
2026 09 06 23  23 28 35.736   -04 55 47.74  .31730 1.3234 173.0 21.6 .664  89
2026 09 07 00  23 28 39.883   -04 57 43.92  .31727 1.3234 173.0 21.6 .678  89
2026 09 07 01  23 28 44.029   -04 59 40.13  .31724 1.3233 173.1 21.6 .692  89
2026 09 07 02  23 28 48.174   -05 01 36.36  .31721 1.3233 173.1 21.6 .706  89
2026 09 07 03  23 28 52.320   -05 03 32.61  .31718 1.3233 173.1 21.6 .720  89
2026 09 07 04  23 28 56.465   -05 05 28.90  .31715 1.3233 173.1 21.6 .735  88
2026 09 07 05  23 29 00.609   -05 07 25.20  .31712 1.3232 173.2 21.6 .749  88
2026 09 07 06  23 29 04.753   -05 09 21.53  .31709 1.3232 173.2 21.6 .764  88